Location: Fontevrault
(47.1823°N, 0.0493°E)
Time: 06:50:40
(UTC+00:00)

Cosmos 1378 Rocket - Visible Passes

Search period start: 26 October 2021 00:00
Search period end: 05 November 2021 00:00
Orbit: 602 x 626 km, 82.5° (Epoch: 24 October)

Date Brightness Start Highest point End Pass type
(mag) Time Alt. Az. Time Alt. Az. Time Alt. Az.
26 Oct 5.8 03:27:06 20° NNE 03:27:06 20° NNE 03:28:31 10° NNE visible
26 Oct 5.5 05:04:12 14° NW 05:04:12 14° NW 05:05:17 10° NNW visible
27 Oct 5.9 03:43:26 17° N 03:43:26 17° N 03:44:26 10° N visible
28 Oct 6.0 03:59:42 13° N 03:59:42 13° N 04:00:11 10° N visible
